SBONWEB Weather Reports


Display with metric or nautical units.
time (UTC)temp
F
wind
direction
speed
MPH
gust
MPH
rain 1hr
in
rain 24hr
in
rain mn
in
humidity
%
barometer
mb
20260509183603 65 0 0.0 0.0 0.00 0.00 0.00 61 1014.6
20260509182918 65 0 0.0 0.0 0.00 0.00 0.00 59 1014.6
20260509181804 66 0 0.0 0.0 0.00 0.00 0.00 61 1014.5
20260509180905 67 0 0.0 0.0 0.00 0.00 0.00 64 1014.5
20260509180218 68 0 0.0 0.0 0.00 0.00 0.00 60 1014.4
20260509175403 69 0 0.0 0.0 0.00 0.00 0.00 60 1014.4
20260509174503 71 0 0.0 0.0 0.00 0.00 0.00 59 1014.4
20260509155403 72 149 4.0 9.0 0.00 0.00 0.00 44 1014.9
20260509154504 72 114 4.0 8.0 0.00 0.00 0.00 45 1015.0
20260509153603 72 114 3.0 8.0 0.00 0.00 0.00 44 1015.0
20260509152017 72 125 4.0 10.0 0.00 0.00 0.00 43 1015.0
20260509150903 72 115 4.0 9.0 0.00 0.00 0.00 46 1015.0
20260509150004 72 123 4.0 9.0 0.00 0.00 0.00 46 1014.8
20260509145403 72 131 4.0 9.0 0.00 0.00 0.00 48 1015.1
20260509144503 72 167 5.0 10.0 0.00 0.00 0.00 45 1015.0
20260509143603 72 138 5.0 12.0 0.00 0.00 0.00 47 1015.0
20260509142703 72 122 3.0 10.0 0.00 0.00 0.00 48 1015.0
20260509141803 72 117 4.0 9.0 0.00 0.00 0.00 48 1015.0
20260509140904 72 137 4.0 9.0 0.00 0.00 0.00 49 1015.2
20260509140003 72 112 3.0 9.0 0.00 0.00 0.00 47 1015.3
20260509135403 72 133 3.0 7.0 0.00 0.00 0.00 48 1015.3
20260509134504 72 161 4.0 8.0 0.00 0.00 0.00 48 1015.5
20260509133603 72 130 4.0 8.0 0.00 0.00 0.00 50 1015.5
20260509132703 71 114 5.0 10.0 0.00 0.00 0.00 49 1015.7
20260509131804 72 122 5.0 12.0 0.00 0.00 0.00 51 1015.8
20260509130903 72 145 4.0 12.0 0.00 0.00 0.00 50 1015.9
20260509130003 71 151 5.0 11.0 0.00 0.00 0.00 51 1016.1
20260509125618 72 160 5.0 12.0 0.00 0.00 0.00 49 1016.2
20260509124504 71 117 5.0 10.0 0.00 0.00 0.00 52 1016.2
20260509123603 70 120 5.0 10.0 0.00 0.00 0.00 50 1016.0
20260509121117 70 127 2.0 10.0 0.00 0.00 0.00 50 1016.2
20260509120003 70 208 5.0 9.0 0.00 0.00 0.00 52 1016.2
20260509115403 70 110 4.0 11.0 0.00 0.00 0.00 49 1016.3
20260509114504 71 105 2.0 7.0 0.00 0.00 0.00 52 1016.4
20260509113603 70 102 3.0 7.0 0.00 0.00 0.00 52 1016.3
20260509112703 70 201 4.0 9.0 0.00 0.00 0.00 53 1016.5
20260509110903 70 130 2.0 11.0 0.00 0.00 0.00 53 1016.6
20260509110003 70 118 4.0 10.0 0.00 0.00 0.00 55 1016.8
20260509105404 69 122 4.0 10.0 0.00 0.00 0.00 52 1016.9
20260509080904 66 92 1.0 6.0 0.00 0.00 0.00 61 1017.7
20260509080003 65 89 2.0 4.0 0.00 0.00 0.00 63 1017.8
20260509075403 65 61 1.0 4.0 0.00 0.00 0.00 63 1017.8
20260509074504 65 63 2.0 4.0 0.00 0.00 0.00 64 1017.9
20260509073603 64 62 1.0 3.0 0.00 0.00 0.00 68 1017.9
20260509072917 63 26 1.0 3.0 0.00 0.00 0.00 68 1017.8
20260509071803 62 21 3.0 4.0 0.00 0.00 0.00 70 1017.9
20260509070903 61 29 4.0 5.0 0.00 0.00 0.00 73 1017.9
20260509070003 60 25 4.0 7.0 0.00 0.00 0.00 72 1017.8
20260509065403 60 14 4.0 7.0 0.00 0.00 0.00 73 1017.8
20260509064503 60 6 3.0 7.0 0.00 0.00 0.00 74 1017.9
20260509063603 59 18 3.0 5.0 0.00 0.00 0.00 75 1017.9
20260509062703 58 9 4.0 7.0 0.00 0.00 0.00 77 1017.8
20260509062018 58 11 4.0 8.0 0.00 0.00 0.00 78 1017.8
20260509060903 57 340 4.0 5.0 0.00 0.00 0.00 79 1017.8
20260509060004 56 358 4.0 8.0 0.00 0.00 0.00 80 1017.7
20260509055403 56 1 4.0 8.0 0.00 0.00 0.00 79 1017.8
20260509054718 56 346 4.0 8.0 0.00 0.00 0.00 80 1017.7
20260509053817 56 10 4.0 8.0 0.00 0.00 0.00 80 1017.7
20260509052703 55 343 3.0 5.0 0.00 0.00 0.00 81 1017.7
20260509051803 55 360 2.0 6.0 0.00 0.00 0.00 82 1017.7
20260509051117 54 356 1.0 4.0 0.00 0.00 0.00 83 1017.7
20260509050003 53 216 2.0 3.0 0.00 0.00 0.00 85 1017.7
20260509045403 52 217 2.0 3.0 0.00 0.00 0.00 86 1017.6
20260509044718 52 211 2.0 3.0 0.00 0.00 0.00 87 1017.5
20260509043603 52 224 1.0 4.0 0.00 0.00 0.00 87 1017.3
20260509042703 52 231 1.0 2.0 0.00 0.00 0.00 88 1017.3
20260509041803 51 223 2.0 4.0 0.00 0.00 0.00 89 1017.1
20260509040903 51 215 2.0 5.0 0.00 0.00 0.00 89 1017.1
20260509040003 51 218 1.0 3.0 0.00 0.00 0.00 88 1017.0
20260509035403 51 228 2.0 2.0 0.00 0.00 0.00 88 1016.9
20260509034503 52 1 4.0 8.0 0.00 0.00 0.00 88 1017.0
20260509033603 52 15 4.0 9.0 0.00 0.00 0.00 87 1016.9
20260509032703 52 340 4.0 8.0 0.00 0.00 0.00 86 1016.9
20260509031803 52 9 2.0 8.0 0.00 0.00 0.00 87 1017.0
20260509031118 52 337 1.0 4.0 0.00 0.00 0.00 88 1017.1
20260509030004 52 201 1.0 3.0 0.00 0.00 0.00 87 1017.1
20260509025403 52 219 2.0 3.0 0.00 0.00 0.00 87 1017.2
20260509024503 53 16 3.0 5.0 0.00 0.00 0.00 87 1017.0
20260509023603 53 10 5.0 8.0 0.00 0.00 0.00 87 1016.9
20260509022703 53 16 5.0 9.0 0.00 0.00 0.00 87 1016.7
20260509022017 53 11 5.0 10.0 0.00 0.00 0.00 88 1016.7
20260509021118 53 7 5.0 9.0 0.00 0.00 0.00 89 1017.0
20260509020003 52 2 3.0 9.0 0.00 0.00 0.00 91 1017.0
20260509015403 51 355 3.0 7.0 0.00 0.00 0.00 91 1017.0
20260509014503 51 355 1.0 4.0 0.00 0.00 0.00 90 1017.1
20260509013603 52 315 2.0 3.0 0.00 0.00 0.00 90 1017.2
20260509012703 52 248 1.0 2.0 0.00 0.00 0.00 90 1017.3
20260509012018 52 248 0.0 2.0 0.00 0.00 0.00 89 1017.3
20260509011118 52 248 1.0 1.0 0.00 0.00 0.00 88 1017.4
20260509010004 52 239 1.0 3.0 0.00 0.00 0.00 88 1017.3
20260509005403 52 230 1.0 2.0 0.00 0.00 0.00 89 1017.3
20260509004503 52 226 2.0 3.0 0.00 0.00 0.00 90 1017.3
20260509003603 52 224 1.0 4.0 0.00 0.00 0.00 91 1017.3
20260509002916 52 228 1.0 2.0 0.00 0.00 0.00 90 1017.3
20260509001803 52 227 1.0 3.0 0.00 0.00 0.00 91 1017.3
20260509000903 51 219 1.0 2.0 0.00 0.00 0.00 91 1017.4
20260509000003 51 219 1.0 2.0 0.00 0.00 0.00 91 1017.3
20260508235403 52 219 1.0 2.0 0.00 0.00 0.00 91 1017.2
20260508234503 52 219 1.0 2.0 0.00 0.00 0.00 91 1017.2
20260508233603 52 224 1.0 2.0 0.00 0.00 0.00 91 1017.1
20260508232703 52 236 1.0 2.0 0.00 0.00 0.00 91 1017.1
20260508231803 52 236 1.0 2.0 0.00 0.00 0.00 92 1017.0
20260508230903 52 236 1.0 2.0 0.00 0.00 0.00 91 1016.9
20260508230003 52 233 0.0 2.0 0.00 0.00 0.00 92 1017.0
20260508225403 52 0 0.0 0.0 0.00 0.00 0.00 91 1017.1
20260508224503 52 0 1.0 0.0 0.00 0.00 0.00 91 1017.2
20260508223816 52 223 1.0 2.0 0.00 0.00 0.00 91 1017.2
20260508222703 52 314 1.0 2.0 0.00 0.00 0.00 91 1017.2
20260508222017 53 351 0.0 2.0 0.00 0.00 0.00 91 1017.2
20260508221116 53 12 1.0 2.0 0.00 0.00 0.00 91 1017.1
20260508220003 53 13 1.0 2.0 0.00 0.00 0.00 92 1017.2
20260508215403 53 13 0.0 2.0 0.00 0.00 0.00 92 1017.2
20260508214503 53 0 0.0 0.0 0.00 0.00 0.00 92 1017.2
20260508213603 52 0 0.0 0.0 0.00 0.00 0.00 92 1017.1
20260508212704 52 219 1.0 1.0 0.00 0.00 0.00 91 1017.0
20260508211803 52 217 1.0 2.0 0.00 0.00 0.00 91 1017.1
20260508210903 52 206 0.0 3.0 0.00 0.00 0.00 90 1017.1
20260508210003 53 0 0.0 0.0 0.00 0.00 0.00 90 1017.0
20260508205403 53 217 1.0 1.0 0.00 0.00 0.00 90 1017.0
20260508204503 53 217 1.0 3.0 0.00 0.00 0.00 90 1016.9
20260508203818 53 217 1.0 2.0 0.00 0.00 0.00 90 1016.8
20260508202703 53 217 1.0 2.0 0.00 0.00 0.00 89 1016.9
20260508201803 54 217 1.0 2.0 0.00 0.00 0.00 89 1017.0
20260508200903 54 217 1.0 2.0 0.00 0.00 0.00 88 1016.9
20260508200003 54 217 1.0 3.0 0.00 0.00 0.00 87 1016.8
20260508195403 55 227 1.0 3.0 0.00 0.00 0.00 87 1016.7
20260508194503 55 220 2.0 3.0 0.00 0.00 0.00 87 1016.7
20260508193603 56 224 1.0 2.0 0.00 0.00 0.00 86 1016.5
20260508192703 56 232 1.0 2.0 0.00 0.00 0.00 86 1016.3
20260508191803 57 229 1.0 2.0 0.00 0.00 0.00 86 1016.1
20260508190903 57 223 0.0 2.0 0.00 0.00 0.00 85 1016.0
20260508190003 58 223 1.0 2.0 0.00 0.00 0.00 84 1016.0
20260508185618 58 223 1.0 2.0 0.00 0.00 0.00 83 1015.9
20260508184504 59 223 0.0 2.0 0.00 0.00 0.00 81 1015.8